Find Starlink 32259

NORAD ID: 60937 Int'l Des: 2024-155 Owner: SPXS Country: US Constellation: starlink operational
LEOCIRCULAR

当前视图

正在加载3D地球...

About Starlink 32259

Starlink 32259 (NORAD 60937) is a starlink constellation satellite (v2 mini) launched Aug 31, 2024 by SPXS of US. It operates in LEO, CIRCULAR orbit with a mass of 730.00 kg.

关于 Starlink 32259

正在加载描述...

即将过境

Passes for default location (London). Set your location on the main map for personalized predictions.

高度历史

Loading altitude history...

两行轨道根数

1 60937U 24155P 26171.00002315 .00056227 00000-0 16646-2 0 9997
2 60937 53.1592 14.4695 0000600 93.9584 306.8193 15.34366151 5870
Epoch: Jun 20, 2026 • Age: 58 hours

当前状态

高度 465.3 km
速度 7.63 km/s
星下点 -11.44°S, 59.99°W
发射日期 Aug 31, 2024
运行时间 1.8 years
类型 internet

技术详情

分类 Payload
质量 730.00 kg
干质量 700.00 kg
总质量 730.00 kg
长度 0.30 m
直径 4.10 m
跨度 29.00 m
形状 Box + pan
制造商 SPXS
平台类型 Starlink V2M
阶段状态 In Orbit
所有者/国家 SPXS/US

Most Searched